FW6482 Weather Reports


time (UTC)temp
F
wind
direction
speed
knots
gust
knots
rain 1hr
in
rain 24hr
in
rain mn
in
humidity
%
barometer
mb
20260504044517 52 214 1.7 4.3 0.00 0.00 0.00 86 1009.8
20260504043018 52 214 0.9 2.6 0.00 0.00 0.00 86 1009.8
20260504041524 51 214 0.9 2.6 0.00 0.00 0.00 87 1009.7
20260504040012 51 214 1.7 3.5 0.00 0.00 0.00 86 1009.8
20260504034517 51 214 1.7 2.6 0.00 0.00 0.00 87 1009.8
20260504033013 51 214 0.9 2.6 0.00 0.00 0.00 87 1009.9
20260504031510 51 214 0.9 2.6 0.00 0.00 0.00 87 1009.9
20260504030010 51 214 1.7 3.5 0.00 0.00 0.00 87 1010.0
20260504024510 51 214 1.7 2.6 0.00 0.00 0.00 87 1010.0
20260504023009 51 214 1.7 3.5 0.00 0.00 0.00 87 1009.8
20260504021506 51 214 1.7 3.5 0.00 0.00 0.00 87 1010.0
20260504020005 51 214 2.6 3.5 0.00 0.00 0.00 86 1010.0
20260504014504 51 215 1.7 3.5 0.00 0.00 0.00 85 1009.9
20260504013004 52 215 1.7 3.5 0.00 0.00 0.00 85 1010.1
20260504003053 53 215 1.7 2.6 0.00 0.00 0.00 81 1009.9
20260504001553 53 215 0.9 1.7 0.00 0.00 0.00 81 1010.0
20260504000050 54 215 0.9 1.7 0.00 0.00 0.00 80 1010.1
20260503234602 54 215 0.9 1.7 0.00 0.01 0.00 79 1010.1
20260503233048 54 215 0.9 3.5 0.00 0.01 0.00 80 1010.0
20260503231541 55 215 1.7 5.2 0.00 0.01 0.00 79 1010.0
20260503230041 55 224 2.6 4.3 0.00 0.01 0.00 77 1010.0
20260503224537 56 225 1.7 4.3 0.00 0.01 0.00 76 1009.9
20260503223035 56 225 1.7 5.2 0.00 0.01 0.00 76 1009.9
20260503221535 56 247 3.5 6.1 0.00 0.01 0.00 75 1010.0
20260503220028 57 222 2.6 6.1 0.00 0.01 0.00 74 1010.1
20260503214525 57 203 3.5 7.0 0.00 0.01 0.01 73 1010.0
20260503213025 57 231 3.5 6.1 0.00 0.01 0.01 72 1010.1
20260503211525 58 248 1.7 3.5 0.00 0.01 0.01 70 1010.1
20260503210024 59 252 1.7 3.5 0.00 0.01 0.01 69 1010.2
20260503204524 59 250 1.7 6.1 0.00 0.01 0.01 68 1010.1
20260503203022 60 254 2.6 6.1 0.00 0.01 0.01 67 1010.0
20260503201522 60 248 1.7 9.6 0.00 0.01 0.01 66 1009.9
20260503200021 61 237 1.7 3.5 0.00 0.01 0.01 64 1010.1
20260503194523 61 232 2.6 6.1 0.00 0.01 0.01 64 1010.0
20260503193019 61 239 4.3 7.8 0.00 0.01 0.01 63 1009.9
20260503191527 61 225 2.6 6.1 0.00 0.01 0.01 64 1010.0
20260503190020 61 216 4.3 8.7 0.00 0.01 0.01 64 1009.8
20260503184519 61 205 4.3 8.7 0.00 0.01 0.01 63 1009.6
20260503183018 61 216 3.5 8.7 0.00 0.01 0.01 65 1009.4
20260503181518 62 209 2.6 6.1 0.00 0.01 0.01 66 1009.2
20260503180018 62 206 1.7 6.1 0.00 0.01 0.01 65 1009.1
20260503174518 62 243 3.5 7.8 0.00 0.02 0.01 65 1009.1
20260503173016 63 217 4.3 13.0 0.00 0.02 0.01 64 1009.1
20260503171515 63 180 5.2 13.9 0.00 0.02 0.01 64 1009.2
20260503110110 71 211 5.2 10.4 0.00 0.02 0.01 43 1009.3
20260503081530 64 217 5.2 11.3 0.00 0.02 0.01 52 1009.7
20260503071521 62 180 6.1 11.3 0.00 0.02 0.01 52 1009.5
20260503054509 60 221 7.0 11.3 0.00 0.02 0.01 55 1009.5
20260503053005 59 267 4.3 10.4 0.00 0.02 0.01 58 1009.4
20260503051502 59 176 2.6 7.8 0.00 0.02 0.01 60 1009.4